#timestamp,LO_Frequency,Hit,Temp,Hum 
1478955615.5,286047005.6,N,0.0,0.0
1478955635.4,286047003.1,N,0.0,0.0
1478955655.2,286047003.2,N,0.0,0.0
1478955675.1,286047006.0,N,0.0,0.0
1478955676.0,286047006.0,N,0.0,0.0
1478955695.8,286047003.4,N,0.0,0.0
1478955715.6,286047003.6,N,0.0,0.0
1478955735.5,286047003.6,N,0.0,0.0
1478955755.3,286047003.0,N,0.0,0.0
1478955775.1,286047003.0,N,0.0,0.0
1478955795.9,286047004.3,N,0.0,0.0
1478955815.7,286047004.0,N,0.0,0.0
1478955835.6,286047001.7,N,0.0,0.0
1478955855.4,286047002.0,N,0.0,0.0
1478955875.2,286047003.0,N,0.0,0.0
1478955895.1,286047003.3,N,0.0,0.0
1478955896.0,286047003.3,N,0.0,0.0
1478955915.8,286047002.9,N,0.0,0.0
1478955935.6,286047004.1,N,0.0,0.0
1478955955.5,286047003.7,N,0.0,0.0
1478955975.3,286047006.0,N,0.0,0.0
1478955995.2,286047006.4,N,0.0,0.0
1478956015.9,286047006.8,N,0.0,0.0
1478956035.7,286047005.6,N,0.0,0.0
1478956055.6,286047003.7,N,0.0,0.0
1478956075.4,286047000.2,N,0.0,0.0
1478956095.2,286047003.7,N,0.0,0.0
1478956115.1,286047001.7,N,0.0,0.0
1478956116.0,286047001.7,N,0.0,0.0
1478956135.8,286047004.1,N,0.0,0.0
1478956155.6,286047004.0,N,0.0,0.0
1478956175.5,286047011.2,N,0.0,0.0
1478956195.3,286047009.3,N,0.0,0.0
1478956215.2,286047009.3,N,0.0,0.0
1478956235.9,286047009.4,N,0.0,0.0
1478956255.7,286047009.4,N,0.0,0.0
1478956275.6,286047009.9,N,0.0,0.0
1478956295.4,286047004.0,N,0.0,0.0
1478956315.2,286047003.6,N,0.0,0.0
1478956335.1,286047001.7,N,0.0,0.0
1478956336.0,286047001.7,N,0.0,0.0
1478956355.8,286047001.5,N,0.0,0.0
1478956375.7,286047004.3,N,0.0,0.0
1478956395.5,286047001.3,N,0.0,0.0
1478956415.3,286047003.9,N,0.0,0.0
1478956435.2,286047005.2,N,0.0,0.0
1478956455.9,286047007.0,N,0.0,0.0
1478956475.7,286047006.7,N,0.0,0.0
1478956495.6,286047004.6,N,0.0,0.0
1478956515.4,286047005.2,N,0.0,0.0
1478956535.3,286047003.0,N,0.0,0.0
1478956555.1,286047003.3,N,0.0,0.0
1478956556.0,286047003.3,N,0.0,0.0
1478956575.8,286047003.6,N,0.0,0.0
1478956595.7,286047001.8,N,0.0,0.0
1478956615.5,286047001.8,N,0.0,0.0
1478956635.3,286047001.4,N,0.0,0.0
1478956655.2,286047001.3,N,0.0,0.0
1478956675.0,286047003.8,N,0.0,0.0
1478956675.9,286047003.8,N,0.0,0.0
1478956695.8,286047001.4,N,0.0,0.0
1478956715.6,286047001.3,N,0.0,0.0
1478956735.4,286047001.7,N,0.0,0.0
1478956755.3,286047001.5,N,0.0,0.0
1478956775.1,286047002.1,N,0.0,0.0
1478956795.8,286047001.9,N,0.0,0.0
1478956815.7,286047000.2,N,0.0,0.0
1478956835.5,286047002.2,N,0.0,0.0
1478956855.4,286047001.5,N,0.0,0.0
1478956875.2,286047004.0,N,0.0,0.0
1478956895.0,286047004.3,N,0.0,0.0
1478956895.9,286047004.3,N,0.0,0.0
1478956915.8,286047004.0,N,0.0,0.0
1478956935.6,286047007.6,N,0.0,0.0
1478956955.4,286047005.6,N,0.0,0.0
1478956975.3,286047004.9,N,0.0,0.0
1478956995.1,286047004.6,N,0.0,0.0
1478957015.9,286047006.9,N,0.0,0.0
1478957035.7,286047007.3,N,0.0,0.0
1478957055.5,286047007.6,N,0.0,0.0
1478957075.4,286047003.4,N,0.0,0.0
1478957095.2,286047003.0,N,0.0,0.0
1478957115.0,286047004.3,N,0.0,0.0
1478957115.9,286047004.3,N,0.0,0.0
1478957135.8,286047004.4,N,0.0,0.0
1478957155.6,286047001.4,N,0.0,0.0
1478957175.4,286047003.4,N,0.0,0.0
1478957195.3,286047004.2,N,0.0,0.0
1478957215.1,286047001.8,N,0.0,0.0
1478957235.9,286047004.0,N,0.0,0.0
1478957255.7,286047001.4,N,0.0,0.0
1478957275.5,286047004.0,N,0.0,0.0
1478957295.4,286047004.3,N,0.0,0.0
1478957315.2,286047001.4,N,0.0,0.0
1478957335.0,286047003.6,N,0.0,0.0
1478957335.9,286047003.6,N,0.0,0.0
1478957355.8,286047001.4,N,0.0,0.0
1478957375.6,286047003.2,N,0.0,0.0
1478957395.5,286047003.1,N,0.0,0.0
1478957415.3,286047005.4,N,0.0,0.0
1478957435.1,286047007.6,N,0.0,0.0
1478957455.9,286047008.6,N,0.0,0.0
1478957475.7,286047009.0,N,0.0,0.0
1478957495.5,286047010.6,N,0.0,0.0
1478957515.4,286047010.1,N,0.0,0.0
1478957535.2,286047008.8,N,0.0,0.0
1478957555.0,286047006.1,N,0.0,0.0
1478957555.9,286047006.1,N,0.0,0.0
1478957575.8,286047006.2,N,0.0,0.0
1478957595.6,286047004.9,N,0.0,0.0
1478957615.5,286047004.6,N,0.0,0.0
1478957635.3,286047005.0,N,0.0,0.0
1478957655.1,286047002.6,N,0.0,0.0
1478957675.9,286047003.0,N,0.0,0.0
1478957695.7,286047005.9,N,0.0,0.0
1478957715.5,286047003.2,N,0.0,0.0
1478957735.4,286047003.0,N,0.0,0.0
1478957755.2,286047003.9,N,0.0,0.0
1478957775.1,286047003.2,N,0.0,0.0
1478957776.0,286047003.2,N,0.0,0.0
1478957795.8,286047003.2,N,0.0,0.0
1478957815.6,286047005.1,N,0.0,0.0
1478957835.5,286047004.8,N,0.0,0.0
1478957855.3,286047004.8,N,0.0,0.0
1478957875.1,286047003.1,N,0.0,0.0
1478957895.9,286047003.7,N,0.0,0.0
1478957915.7,286047007.3,N,0.0,0.0
1478957935.6,286047006.4,N,0.0,0.0
1478957955.4,286047008.9,N,0.0,0.0
1478957975.2,286047006.4,N,0.0,0.0
1478957995.1,286047006.8,N,0.0,0.0
1478957996.0,286047006.8,N,0.0,0.0
1478958015.8,286047005.1,N,0.0,0.0
1478958035.6,286047004.5,N,0.0,0.0
1478958055.5,286047004.7,N,0.0,0.0
1478958075.3,286047003.7,N,0.0,0.0
1478958095.2,286047005.3,N,0.0,0.0
1478958115.9,286047002.5,N,0.0,0.0
1478958135.7,286047001.4,N,0.0,0.0
1478958155.6,286047003.8,N,0.0,0.0
1478958175.4,286047001.5,N,0.0,0.0
1478958195.2,286047003.5,N,0.0,0.0
1478958215.1,286047003.7,N,0.0,0.0
1478958216.0,286047003.7,N,0.0,0.0
1478958235.8,286047004.6,N,0.0,0.0
1478958255.6,286047005.9,N,0.0,0.0
1478958275.5,286047003.8,N,0.0,0.0
1478958295.3,286047002.2,N,0.0,0.0
1478958315.2,286047001.3,N,0.0,0.0
1478958335.9,286047005.5,N,0.0,0.0
1478958355.7,286047007.3,N,0.0,0.0
1478958375.6,286047005.2,N,0.0,0.0
1478958395.4,286047006.0,N,0.0,0.0
1478958415.2,286047006.0,N,0.0,0.0
1478958435.1,286047003.2,N,0.0,0.0
1478958436.0,286047003.2,N,0.0,0.0
1478958455.8,286047003.5,N,0.0,0.0
1478958475.7,286047003.5,N,0.0,0.0
1478958495.5,286047004.1,N,0.0,0.0
1478958515.3,286047004.4,N,0.0,0.0
1478958535.2,286047001.9,N,0.0,0.0
1478958555.9,286047001.8,N,0.0,0.0
1478958575.7,286047002.4,N,0.0,0.0
1478958595.6,286047003.8,N,0.0,0.0
1478958615.4,286047004.1,N,0.0,0.0
1478958635.2,286046984.9,N,0.0,0.0
1478958655.1,286046985.0,N,0.0,0.0
1478958656.0,286046985.0,N,0.0,0.0
1478958675.8,286046982.2,N,0.0,0.0
1478958695.7,286046984.8,N,0.0,0.0
1478958715.5,286046984.3,N,0.0,0.0
1478958735.3,286046990.8,N,0.0,0.0
1478958755.2,286047003.9,N,0.0,0.0
1478958775.0,286047004.3,N,0.0,0.0
1478958775.9,286047004.3,N,0.0,0.0
1478958795.8,286047004.3,N,0.0,0.0
1478958815.6,286047004.1,N,0.0,0.0
1478958835.4,286047004.1,N,0.0,0.0
1478958855.3,286047005.2,N,0.0,0.0
1478958875.1,286047005.5,N,0.0,0.0
1478958876.0,286047005.5,N,0.0,0.0
1478958895.8,286047003.7,N,0.0,0.0
1478958915.7,286047003.2,N,0.0,0.0
1478958935.5,286047004.1,N,0.0,0.0
1478958955.4,286047004.2,N,0.0,0.0
1478958975.2,286047003.1,N,0.0,0.0
1478958995.0,286047005.8,N,0.0,0.0
1478958995.9,286047005.8,N,0.0,0.0
1478959015.8,286047003.6,N,0.0,0.0
1478959035.6,286047003.5,N,0.0,0.0
1478959055.4,286047004.2,N,0.0,0.0
1478959075.3,286047001.5,N,0.0,0.0
1478959095.1,286047001.6,N,0.0,0.0
1478959115.9,286047001.9,N,0.0,0.0
1478959135.7,286047004.3,N,0.0,0.0
1478959155.5,286047012.2,N,0.0,0.0
1478959175.4,286047000.5,N,0.0,0.0
1478959195.2,286047002.9,N,0.0,0.0
